Location: Unspecified
(0.0000°N, 0.0000°E)
Time: 08:31:04
(UTC+00:00)

Transit 4A - Pass Details

Date: 29 May 2022
Orbit: 864 x 980 km, 66.8° (Epoch: 24 June)

Event Time Altitude Azimuth Distance (km) Brightness Sun altitude
Rises 00:23:49 0° 171° (S) 3,568 - -67.5°
Reaches altitude 10° 00:27:04 10° 154° (SSE) 2,645 - -67.2°
Maximum altitude 00:31:21 20° 110° (ESE) 2,061 - -66.9°
Drops below altitude 10° 00:35:42 10° 65° (ENE) 2,689 - -66.5°
Sets 00:39:01 0° 49° (NE) 3,648 - -66.1°
